Powrót do katalogu

TITAN 3C TRANSTAGE R/B

AktywnyMEO
NORAD 3292·ROCKET BODY·🇺🇸 United States

Wystrzelony Jun 13, 1968 z Cape Canaveral Space Force Station

Loading…

Następne Przeloty (najbliższe 24 godziny)

TLE

ŚwieżeSource: Space-Track

Epoka: Sep 14, 2026, 12:23 UTC

1 03292U 68050J   26257.51620199 -.00000228  00000-0  00000-0 0  9993
2 03292   7.8133  51.9138 0175110   9.5993 180.1497  1.05594990 47448

Śledź TITAN 3C TRANSTAGE R/B w czasie rzeczywistym z AllMySat

Download on the App Store